DateTimeUTC,F1_A11,F1_S11,BsB_S11,BsG_S11,BsR_S11,BbsB_S11,BbsG_S11,BbsR_S11,BaB_A11,BaG_A11,BaR_A11,Tu_S11,T_S11,Uu_S11,U_S11,P_S11,T1_A11
2021-04-13T09:00:00Z,00000200,21000000,,,,,,,0000.15,-000.53,-000.11,17.7,24.8,01.2,00.8,0661.1,31.1
2021-04-13T09:01:00Z,00000200,21000000,,,,,,,0000.01,0000.44,0000.22,17.7,24.8,01.2,00.8,0661.1,31.1
2021-04-13T09:02:00Z,00000200,21000000,,,,,,,0000.06,0000.01,-000.49,17.7,24.8,01.2,00.8,0661.0,31.1
2021-04-13T09:03:00Z,00000200,61000000,,,,,,,0000.28,-000.34,0000.33,17.7,24.9,01.2,00.8,0661.0,31.1
2021-04-13T09:04:00Z,00000200,41000000,0000.71,0000.28,0000.27,0000.44,0000.19,0000.12,-000.05,0000.29,0000.07,17.8,24.7,01.4,00.9,0661.9,31.1
2021-04-13T09:05:00Z,00000200,01000000,0000.71,0000.10,0000.08,0000.63,-000.12,0000.37,0000.15,0000.38,0000.37,17.9,24.6,01.4,00.9,0661.9,31.1
2021-04-13T09:06:00Z,00000200,01000000,0000.56,0000.46,0000.03,0000.04,0000.02,0000.38,0000.45,0000.36,0000.34,17.9,24.6,01.4,00.9,0661.9,31.1
2021-04-13T09:07:00Z,00000200,01000000,0000.77,0000.22,-000.17,0000.10,0000.17,0000.09,0000.16,-000.04,0000.08,17.9,24.6,01.4,00.9,0661.9,31.1
2021-04-13T09:08:00Z,00000200,01000000,0000.74,0000.33,0000.31,0000.14,0000.04,0000.25,0000.04,0000.10,-000.09,17.9,24.6,01.4,01.0,0661.9,31.1
2021-04-13T09:09:00Z,00000200,01000000,0000.38,0000.29,0000.18,0000.25,-000.05,0000.42,0000.03,-000.23,0000.11,17.9,24.6,01.4,00.9,0661.9,31.1
2021-04-13T09:10:00Z,00000200,01000000,0000.37,0000.24,-000.02,-000.25,-000.05,0000.25,0000.50,0000.29,0000.15,17.9,24.6,01.5,01.0,0661.9,31.1
2021-04-13T09:11:00Z,00000200,01000000,0000.16,0000.33,0000.34,-000.02,0000.40,0000.13,0000.25,0000.78,0000.35,17.9,24.6,01.5,01.0,0661.9,31.1
2021-04-13T09:12:00Z,00000200,01000000,0000.77,0000.18,0000.40,0000.24,0000.13,0000.23,0000.41,-000.14,0000.19,17.9,24.6,01.5,01.0,0661.8,31.1
2021-04-13T09:13:00Z,00000200,01000000,0000.72,0000.22,0000.11,0000.22,0000.12,0000.07,0000.46,0000.49,0000.13,17.9,24.6,01.6,01.0,0661.8,31.1
2021-04-13T09:14:00Z,00000200,01000000,0000.45,0000.32,0000.07,0000.25,0000.04,-000.05,-000.08,-000.10,0000.08,17.9,24.6,01.6,01.1,0661.8,31.1
2021-04-13T09:15:00Z,00000200,01000000,0000.32,0000.32,0000.19,-000.22,-000.04,0000.38,0000.28,0000.40,0000.12,17.9,24.6,01.6,01.0,0661.8,31.1
2021-04-13T09:16:00Z,00000200,01000000,-000.14,0000.41,0000.53,-000.27,0000.04,0000.07,0000.15,0000.40,0000.42,17.9,24.6,01.6,01.1,0661.8,31.1
2021-04-13T09:17:00Z,00000200,01000000,0000.44,0000.44,0000.33,0000.22,0000.41,0000.18,0000.50,0000.07,-000.18,17.9,24.6,01.6,01.1,0661.8,31.1
2021-04-13T09:18:00Z,00000200,01000000,0000.91,0000.53,0000.33,0000.39,0000.29,0000.11,0000.00,0000.11,0000.45,17.9,24.6,01.6,01.1,0661.8,31.1
2021-04-13T09:19:00Z,00000200,01000000,0000.53,0000.18,0000.05,-000.03,0000.30,0000.23,-000.23,0000.42,-000.14,17.9,24.6,01.6,01.1,0661.7,31.1
2021-04-13T09:20:00Z,00000200,01000000,0000.14,0000.30,0000.13,0000.54,-000.10,0000.26,0000.58,-000.05,0000.26,17.9,24.6,01.6,01.0,0661.8,31.1
2021-04-13T09:21:00Z,00000200,01000000,0000.05,0000.16,0000.17,-000.12,0000.17,0000.21,0000.30,0000.06,0000.39,17.9,24.6,01.6,01.0,0661.7,31.1
2021-04-13T09:22:00Z,00000200,01000000,0000.57,0000.47,0000.32,0000.73,0000.19,0000.09,0000.37,0000.35,-000.12,17.9,24.6,01.7,01.1,0661.8,31.1
2021-04-13T09:23:00Z,00000200,01000000,0000.27,0000.28,0000.40,0000.35,0000.21,0000.09,0000.16,0000.53,0000.86,17.9,24.6,01.6,01.1,0661.7,31.1
2021-04-13T09:24:00Z,00000200,01000000,0000.88,0000.66,0000.15,0000.42,0000.24,-000.12,0000.09,-000.08,-000.28,17.9,24.6,01.7,01.1,0661.7,31.1
2021-04-13T09:25:00Z,00000200,01000000,0000.29,0000.04,0000.26,0000.41,0000.15,0000.07,0000.19,-000.19,0000.07,17.9,24.6,01.8,01.2,0661.6,31.1
2021-04-13T09:26:00Z,00000200,01000000,0000.34,0000.25,0000.11,0000.32,0000.08,0000.21,0000.18,0000.77,0000.14,17.9,24.6,01.7,01.1,0661.6,31.1
2021-04-13T09:27:00Z,00000200,01000000,0000.29,0000.19,0000.38,-000.04,0000.06,0000.38,0000.37,0000.67,0000.15,17.9,24.6,01.6,01.1,0661.7,31.1
2021-04-13T09:28:00Z,00000200,01000000,0000.76,0000.50,0000.17,0000.19,0000.01,0000.27,0000.43,0000.02,0000.27,17.9,24.6,01.7,01.2,0661.7,31.1
2021-04-13T09:29:00Z,00000200,01000000,0001.00,0000.60,0000.10,0000.04,0000.02,0000.27,0000.07,-000.06,0000.31,17.9,24.6,01.7,01.1,0661.6,31.1
2021-04-13T09:30:00Z,00000200,01000000,0000.44,0000.27,-000.18,-000.04,0000.04,0000.20,0000.24,0000.60,0000.00,17.9,24.6,01.7,01.1,0661.7,31.1
2021-04-13T09:31:00Z,00000200,01000000,-000.19,0000.17,0000.49,-000.05,0000.18,0000.28,0000.53,0000.12,0000.52,17.9,24.6,01.7,01.1,0661.7,31.1
2021-04-13T09:32:00Z,00000200,01000000,0000.36,0000.43,-000.02,-000.25,0000.07,0000.29,0000.38,0000.17,0000.12,17.9,24.6,01.8,01.2,0661.6,31.1
2021-04-13T09:33:00Z,00000200,01000000,0000.84,0000.48,0000.42,0000.16,0000.17,0000.24,0000.26,0000.32,0000.30,17.9,24.6,01.8,01.2,0661.7,31.1
2021-04-13T09:34:00Z,00000200,01000000,0000.39,0000.43,0000.31,0000.53,0000.28,0000.29,-000.09,-000.10,-000.17,17.9,24.6,01.8,01.2,0661.6,31.1
2021-04-13T09:35:00Z,00000200,01000000,0000.62,0000.69,0000.34,-000.21,0000.12,-000.01,0000.55,0000.40,0000.30,17.9,24.6,01.8,01.2,0661.6,31.1
2021-04-13T09:36:00Z,00000200,01000000,0000.40,0000.36,0000.22,-000.09,0000.26,0000.26,-000.06,0000.60,0000.24,17.9,24.6,01.8,01.2,0661.6,31.1
2021-04-13T09:37:00Z,00000200,01000000,0000.57,0000.44,0000.24,0000.14,0000.12,0000.31,0000.39,-000.10,0000.14,17.9,24.6,01.8,01.2,0661.6,31.1
2021-04-13T09:38:00Z,00000200,01000000,0000.36,0000.19,0000.21,-000.37,-000.04,0000.17,0000.08,0000.19,0000.16,17.9,24.6,01.9,01.2,0661.6,31.1
2021-04-13T09:39:00Z,00000200,01000000,-000.12,0000.42,0000.05,0000.41,0000.31,0000.45,-000.05,0000.24,0000.35,18.0,24.6,01.8,01.2,0661.5,31.1
2021-04-13T09:40:00Z,00000200,01000000,0000.06,0000.48,0000.10,0000.26,-000.01,0000.16,0000.46,0000.57,0000.07,18.0,24.6,01.8,01.2,0661.5,31.1
2021-04-13T09:41:00Z,00000200,01000000,-000.03,0000.47,0000.05,-000.59,0000.09,0000.02,-000.36,-000.22,-000.23,17.9,24.6,01.8,01.2,0661.5,31.1
2021-04-13T09:42:00Z,00000200,01000000,0000.33,0000.55,0000.08,0000.23,0000.03,0000.03,0001.00,0000.33,0000.31,17.9,24.6,01.9,01.3,0661.5,31.1
2021-04-13T09:43:00Z,00000200,01000000,0000.99,0000.50,0000.07,0000.15,-000.05,0000.43,0000.38,0000.81,0000.21,18.0,24.6,01.9,01.2,0661.5,31.1
2021-04-13T09:44:00Z,00000200,01000000,0000.99,0000.29,0000.03,0000.43,0000.08,0000.19,0000.27,-000.37,0000.44,17.9,24.6,01.9,01.2,0661.5,31.1
2021-04-13T09:45:00Z,00000200,00000000,0001.16,0000.40,0000.12,-000.02,0000.23,0000.22,0000.34,0000.32,0000.06,18.0,24.6,02.0,01.4,0661.5,31.1
2021-04-13T09:46:00Z,00000200,00000000,0000.77,0000.23,0000.25,-000.01,0000.34,0000.14,0000.07,0000.04,0000.03,18.0,24.6,02.0,01.3,0661.5,31.1
2021-04-13T09:47:00Z,00000200,01000000,0000.95,0000.06,0000.40,-000.04,0000.06,0000.29,0000.25,0000.42,0000.43,17.9,24.6,02.0,01.3,0661.5,31.1
2021-04-13T09:48:00Z,00000200,00000000,0000.74,0000.45,0000.29,0000.15,0000.18,0000.29,0000.37,0000.01,0000.22,18.0,24.6,02.0,01.3,0661.5,31.1
2021-04-13T09:49:00Z,00000200,01000000,0000.24,0000.04,0000.15,0000.42,0000.03,0000.10,-000.28,0000.04,-000.47,18.0,24.6,02.0,01.3,0661.5,31.1
2021-04-13T09:50:00Z,00000200,00000000,0000.40,0000.23,0000.06,0000.83,0000.29,0000.13,0000.74,0000.48,0000.76,18.0,24.6,02.0,01.3,0661.5,31.1
2021-04-13T09:51:00Z,00000200,00000000,-000.16,0000.15,0000.48,0000.47,-000.00,0000.26,-000.04,0000.04,-000.31,18.0,24.6,02.1,01.4,0661.5,31.1
2021-04-13T09:52:00Z,00000200,00000000,-000.03,0000.40,-000.10,0000.59,-000.03,0000.04,0000.11,0000.24,0000.38,18.0,24.6,02.0,01.4,0661.4,31.1
2021-04-13T09:53:00Z,00000200,00000000,0000.52,0000.23,0000.53,0000.14,0000.30,0000.39,-000.05,-000.45,-000.35,18.0,24.6,02.0,01.3,0661.4,31.1
2021-04-13T09:54:00Z,00000200,00000000,-000.11,0000.31,0000.04,0000.38,0000.33,-000.05,-000.06,0000.38,0000.25,18.0,24.6,02.0,01.3,0661.4,31.1
2021-04-13T09:55:00Z,00000200,00000000,0000.77,0000.15,0000.29,-000.22,0000.11,0000.34,0000.17,0000.30,0000.00,18.0,24.6,01.9,01.3,0661.4,31.1
2021-04-13T09:56:00Z,00000200,01000000,0000.10,0000.35,0000.11,0000.29,0000.26,0000.29,-000.23,-000.49,-000.15,18.0,24.6,01.9,01.3,0661.5,31.1
2021-04-13T09:57:00Z,00000200,40000000,,,,,,,-000.24,-000.30,-000.38,18.1,24.7,02.2,01.5,0661.4,31.1
2021-04-13T09:58:00Z,00000200,60000000,,,,,,,0000.08,0000.23,0000.42,17.8,24.8,01.7,01.1,0660.5,31.1
2021-04-13T09:59:00Z,00000200,20000000,,,,,,,0000.36,0000.20,-000.14,17.8,24.9,01.7,01.1,0660.5,31.1
